Location: El Mouella
(16.4949°N, 9.1594°W)
Time: 17:29:39
(UTC+00:00)

Cosmos 371 Rocket - Pass Details

Date: 02 June 2020
Orbit: 683 x 700 km, 74.0° (Epoch: 04 July)

Event Time Altitude Azimuth Distance (km) Brightness Sun altitude
Rises 19:29:48 0° 169° (S) 3,040 6.2 -5.9°
Reaches altitude 10° 19:32:24 10° 157° (SSE) 2,129 5.4 -6.5°
Maximum altitude 19:36:23 26° 100° (E) 1,328 4.2 -7.3°
Drops below altitude 10° 19:40:24 10° 44° (NE) 2,141 5.7 -8.2°
Sets 19:43:00 0° 32° (NNE) 3,061 6.6 -8.8°
